Weather History for K0J4 - January, 2013

Change the Weather History Date:

Wednesday, January 9, 2013

  Actual Average (KCEW) Record (KCEW)
Temperature  
Mean Temperature 64 °F -  
Max Temperature 68 °F 59 °F 78 °F (1949)
Min Temperature 59 °F 37 °F 20 °F (1976)
Degree Days  
Heating Degree Days 2    
Growing Degree Days 14 (Base 50)    
Moisture  
Dew Point 60 °F    
Average Humidity 87    
Maximum Humidity 94    
Minimum Humidity 78    
Precipitation  
Precipitation 0.00 in - - ()
Sea Level Pressure  
Sea Level Pressure 30.28 in    
Wind  
Wind Speed 6 mph (ENE)    
Max Wind Speed 9 mph    
Max Gust Speed -    
Visibility 9 miles    
Events      
Averages and records for this station are not official NWS values.
T = Trace of Precipitation, MM = Missing Value Source: NWS Daily Summary

Daily Weather History Graph

Daily Weather History Graph

Search for Another Location

Airport or City:

Trip Planner

Search our weather history database for the weather conditions in past years. The results will help you decide how hot, cold, wet, or windy it might be!

Date:

Astronomy

Jan. 09, 2013 Rise Set
Actual Time 6:44 AM CST 5:00 PM CST
Civil Twilight 6:18 AM CST 5:27 PM CST
Nautical Twilight 5:48 AM CST 5:56 PM CST
Astronomical Twilight 5:18 AM CST 6:26 PM CST
Moon 4:22 AM CST (1/9) 3:02 PM CST (1/9)
Length of Visible Light 11h 08m
Length of Day
10h 16m
Waning Crescent, 6% of the Moon is Illuminated
Jan 9
Waning Crescent
Jan 11
New
Jan 18
First Quarter
Jan 26
Full
Feb 3
Last Quarter

Hourly Weather History & Observations

Time (CST) Temp. Dew Point Humidity Pressure Visibility Wind Dir Wind Speed Gust Speed Precip Events Conditions
12:58 AM 60.1 °F 53.1 °F 78% 30.23 in 10.0 mi East 5.8 mph - N/A   Mostly Cloudy
1:37 AM 59.0 °F 53.6 °F 82% 30.22 in 10.0 mi ENE 4.6 mph - N/A   Scattered Clouds
1:56 AM 59.0 °F 53.6 °F 82% 30.23 in 10.0 mi ENE 4.6 mph - N/A   Mostly Cloudy
1:58 AM 59.0 °F 54.0 °F 83% 30.22 in 10.0 mi East 3.5 mph - N/A   Mostly Cloudy
2:48 AM 59.0 °F 55.4 °F 88% 30.24 in 10.0 mi ENE 4.6 mph - N/A   Overcast
2:58 AM 59.0 °F 55.0 °F 87% 30.24 in 10.0 mi ENE 4.6 mph - N/A   Overcast
3:58 AM 60.1 °F 57.0 °F 90% 30.24 in 10.0 mi ENE 4.6 mph - N/A   Overcast
4:58 AM 60.1 °F 57.0 °F 90% 30.24 in 9.0 mi ENE 5.8 mph - N/A   Overcast
5:58 AM 60.1 °F 57.0 °F 90% 30.26 in 9.0 mi ENE 6.9 mph - N/A   Overcast
6:58 AM 61.0 °F 57.0 °F 87% 30.28 in 9.0 mi East 5.8 mph - N/A   Overcast
7:58 AM 61.0 °F 57.9 °F 90% 30.30 in 7.0 mi East 5.8 mph - N/A   Overcast
8:58 AM 61.0 °F 57.0 °F 87% 30.32 in 8.0 mi East 8.1 mph - N/A   Overcast
9:58 AM 63.0 °F 57.9 °F 84% 30.31 in 9.0 mi East 6.9 mph - N/A   Overcast
10:58 AM 64.0 °F 59.0 °F 84% 30.30 in 9.0 mi East 8.1 mph - N/A   Overcast
11:58 AM 66.0 °F 60.1 °F 81% 30.27 in 9.0 mi East 9.2 mph - N/A   Overcast
12:52 PM 66.2 °F 60.8 °F 83% 30.26 in 10.0 mi ESE 5.8 mph - N/A   Overcast
12:58 PM 66.9 °F 61.0 °F 81% 30.25 in 10.0 mi East 6.9 mph - N/A   Overcast
1:58 PM 68.0 °F 62.1 °F 81% 30.25 in 10.0 mi East 6.9 mph - N/A   Overcast
2:58 PM 68.0 °F 62.1 °F 81% 30.25 in 10.0 mi East 9.2 mph - N/A   Overcast
3:58 PM 68.0 °F 62.1 °F 81% 30.25 in 10.0 mi East 6.9 mph - N/A   Overcast
4:58 PM 66.9 °F 62.1 °F 84% 30.26 in 10.0 mi East 6.9 mph - N/A   Overcast
5:58 PM 66.9 °F 63.0 °F 87% 30.28 in 10.0 mi ENE 4.6 mph - N/A   Overcast
6:13 PM 66.2 °F 62.6 °F 88% 30.29 in 10.0 mi ENE 5.8 mph - N/A   Overcast
6:58 PM 64.9 °F 63.0 °F 93% 30.30 in 7.0 mi ENE 5.8 mph - 0.00 in   Overcast
7:14 PM 64.4 °F 62.6 °F 94% 30.31 in 6.0 mi ENE 4.6 mph - N/A   Overcast
7:49 PM 64.4 °F 62.6 °F 94% 30.31 in 7.0 mi East 8.1 mph - N/A   Overcast
7:58 PM 64.9 °F 62.1 °F 90% 30.30 in 8.0 mi ENE 6.9 mph - N/A   Overcast
8:14 PM 64.4 °F 62.6 °F 94% 30.30 in 9.0 mi ENE 6.9 mph - 0.00 in   Overcast
8:58 PM 64.0 °F 61.0 °F 90% 30.30 in 9.0 mi East 4.6 mph - 0.00 in   Overcast
9:58 PM 64.9 °F 62.1 °F 90% 30.31 in 10.0 mi East 4.6 mph - 0.00 in   Overcast
10:22 PM 64.4 °F 62.6 °F 94% 30.32 in 9.0 mi East 5.8 mph - N/A   Mostly Cloudy
10:28 PM 64.4 °F 62.6 °F 94% 30.32 in 8.0 mi East 5.8 mph - N/A   Overcast
10:58 PM 64.0 °F 62.1 °F 93% 30.32 in 8.0 mi East 4.6 mph - N/A   Overcast
11:56 PM 64.4 °F 62.6 °F 94% 30.31 in 7.0 mi ENE 5.8 mph - N/A   Overcast
11:58 PM 64.0 °F 62.1 °F 93% 30.31 in 7.0 mi ENE 4.6 mph - N/A   Overcast